Vancouver, WA
on Thursday, December 27, 2012

Thursday
Previous Day Next Day
Daily Summary
 ActualAverageRecord
Temperature
Mean Temperature °F 40°F  
Max Temperature 46°F 46°F 60°F (1980)
Min Temperature 36°F 34°F 20°F (1948)
Degree Days
Heating Degree Days 24    
Month to date heating degree days 585  
Since 1 July heating degree days 1426  
Cooling Degree Days 0    
Month to date cooling degree days 0  
Year to date cooling degree days 398  
Moisture
Dew Point 37°F   
Average Humidity 82    
Maximum Humidity 92    
Minimum Humidity 71    
Precipitation
Precipitation 0.01 in 0.24 in 3.10 in (1937)
Month to date precipitation 7.65 5.94  
Year to date precipitation 45.97 38.31  
Snow
Snow 0.00 in in in ()
Month to date snowfall 0.0  
Snow Depth 0.00 in   
Wind
Wind Speed 2 mph   
Max Wind Speed 8 mph   
Max Gust Speed 12 mph   
Visibility 9 miles   
Events     

Key: T is trace of precipitation, MM is missing value
Source: NWS Daily Summary
Time(PST)TemperatureDew PointHumidity Pressure Visibility Wind DirectionWind SpeedGust SpeedPrecipitationEvents Conditions
12:53 AM 39.9°F 37.9°F 93% 30.05 in 7.0 miles Calm Calm - 0.00 in   Overcast
1:53 AM 39.9°F 37.9°F 93% 30.07 in 10.0 miles Calm Calm - 0.01 in   Overcast
2:16 AM 37.4°F 35.6°F 93% 30.07 in 1.8 miles Calm Calm - N/A   Mostly Cloudy
2:24 AM 37.4°F 35.6°F 93% 30.08 in 1.2 miles Calm Calm - N/A   Overcast
2:27 AM 37.4°F 35.6°F 93% 30.08 in 2.0 miles Calm Calm - N/A   Overcast
2:34 AM 37.4°F 35.6°F 93% 30.08 in 10.0 miles Calm Calm - N/A   Overcast
2:53 AM 37.9°F 36.0°F 93% 30.08 in 10.0 miles Calm Calm - N/A   Overcast
3:53 AM 37.0°F 36.0°F 96% 30.09 in 10.0 miles Calm Calm - N/A   Overcast
4:53 AM 37.9°F 35.1°F 89% 30.10 in 10.0 miles East 3.5 mph - N/A   Scattered Clouds
5:53 AM 39.9°F 37.0°F 89% 30.12 in 10.0 miles ESE 3.5 mph - N/A   Overcast
6:53 AM 39.9°F 37.9°F 93% 30.13 in 10.0 miles Calm Calm - N/A   Overcast
7:53 AM 41.0°F 37.9°F 89% 30.14 in 10.0 miles Calm Calm - N/A   Overcast
8:53 AM 41.0°F 37.0°F 86% 30.16 in 10.0 miles Calm Calm - N/A   Overcast
9:06 AM 41.0°F 37.4°F 87% 30.17 in 10.0 miles South 3.5 mph - N/A   Overcast
9:31 AM 42.8°F 37.4°F 81% 30.17 in 10.0 miles Calm Calm - N/A   Overcast
9:53 AM 42.1°F 37.0°F 82% 30.17 in 10.0 miles SSE 3.5 mph - N/A   Partly Cloudy
10:36 AM 42.8°F 37.4°F 81% 30.18 in 10.0 miles SE 3.5 mph - N/A   Mostly Cloudy
10:53 AM 42.1°F 37.0°F 82% 30.19 in 10.0 miles SSW 3.5 mph - N/A   Overcast
11:39 AM 42.8°F 37.4°F 81% 30.20 in 10.0 miles WSW 5.8 mph - N/A   Overcast
11:49 AM 42.8°F 37.4°F 81% 30.20 in 10.0 miles Calm Calm - N/A   Overcast
11:53 AM 43.0°F 37.0°F 80% 30.20 in 10.0 miles West 4.6 mph - N/A   Overcast
12:06 PM 42.8°F 37.4°F 81% 30.19 in 10.0 miles Calm Calm - N/A   Overcast
12:14 PM 42.8°F 37.4°F 81% 30.19 in 10.0 miles Calm Calm - N/A   Overcast
12:53 PM 45.0°F 37.0°F 74% 30.18 in 10.0 miles Calm Calm - N/A   Scattered Clouds
1:53 PM 45.0°F 37.9°F 76% 30.18 in 10.0 miles Calm Calm - N/A   Overcast
2:53 PM 45.0°F 37.9°F 76% 30.18 in 10.0 miles Calm Calm - N/A   Overcast
4:53 PM 43.0°F 37.9°F 82% 30.19 in 10.0 miles Calm Calm - N/A   Overcast
5:10 PM 44.6°F 37.4°F 76% 30.18 in 10.0 miles Calm Calm - N/A   Overcast
5:53 PM 39.0°F 37.0°F 93% 30.19 in 10.0 miles Calm Calm - N/A   Mostly Cloudy
6:53 PM 43.0°F 37.9°F 82% 30.18 in 10.0 miles ESE 5.8 mph - N/A   Overcast
7:53 PM 42.1°F 37.9°F 85% 30.17 in 10.0 miles ESE 5.8 mph - 0.00 in   Overcast
8:53 PM 42.1°F 37.9°F 85% 30.18 in 10.0 miles SE 4.6 mph - N/A   Overcast
9:53 PM 41.0°F 37.0°F 86% 30.18 in 10.0 miles ESE 6.9 mph - N/A   Overcast
10:53 PM 41.0°F 37.0°F 86% 30.19 in 10.0 miles ESE 6.9 mph - N/A   Overcast
11:53 PM 39.9°F 36.0°F 86% 30.19 in 10.0 miles SE 4.6 mph - N/A   Mostly Cloudy
Moon Phase
Dec. 27 Dec. 28 Jan. 04 Jan. 11 Jan. 18
Sunrise:07:50 AM (PST) Moon Rise:04:23 PM (PST)12/27
Sunset:04:33 PM (PST) Moon Set:07:04 AM (PST)12/27

Copyright © 2014 The Weather Underground, Inc.